Regional Weather Roundup
Issued by NWS Albany, NY

Home | Current Version | Previous Version | Text Only | Print | Product List | Glossary On
Versions: 1 2 3 4 5 6 7 8 9 10 11 12 13 14 15 16 17 18 19 20 21 22 23 24 25 26 27 28 29 30 31 32 33 34 35 36 37 38 39 40 41 42 43 44 45 46 47 48 49 50
241
ASUS41 KALY 041210
RWRALY

NEW YORK STATE HOURLY WEATHER ROUNDUP
NATIONAL WEATHER SERVICE ALBANY NY
800 AM EDT WED MAY 04 2016

NOTE: "FAIR" INDICATES FEW OR NO CLOUDS BELOW 12,000 FEET WITH NO
SIGNIFICANT WEATHER AND/OR NO OBSTRUCTIONS TO VISIBILITY.

NYZ032-033-038>043-046>054-057>066-NYZ062>081-082-084-041300-
EAST


CITY           SKY/WX    TMP DP  RH WIND       PRES   REMARKS
ALBANY         CLOUDY    50  47  89 S7        29.82R
GLENS FALLS    CLOUDY    46  44  93 CALM      29.83R FOG
POUGHKEEPSIE   LGT RAIN  50  46  86 CALM      29.82S FOG
NEWBURGH       LGT RAIN  48  46  93 SE7       29.83R FOG
MONTGOMERY     LGT RAIN  49  46  90 E6        29.81S
WHITE PLAINS   CLOUDY    48  46  93 E6        29.80F
ISLIP          CLOUDY    49  44  83 NE9       29.80F
NEW YORK CITY  CLOUDY    51  47  86 E7        29.81S
CENTRAL PARK   CLOUDY    50  45  83 E7        29.83S
$$

NYZ005>009-017-018-044>046-055-056-041300-
CENTRAL


CITY           SKY/WX    TMP DP  RH WIND       PRES   REMARKS
FULTON         CLOUDY    53  47  79 CALM      29.76R
SYRACUSE       PTSUNNY   50  48  93 E3        29.75S
ROME           CLOUDY    49  48  97 E8        29.78S
ELMIRA         FOG       45  43  93 CALM      29.75S VSB 1/2
BINGHAMTON     FOG       46  46 100 CALM      29.75R VSB 1
MONTICELLO     CLOUDY    46  45  93 SE7       29.80S
$$

NYZ026>034-041>043-087-041300-
NORTH


CITY           SKY/WX    TMP DP  RH WIND       PRES   REMARKS
WATERTOWN      CLOUDY    50  44  80 CALM      29.76S
FORT DRUM      NOT AVBL
MASSENA        CLOUDY    45  38  76 NE12      29.82R
SARANAC LAKE   CLOUDY    42  39  89 NE3       29.77S
PLATTSBURGH    NOT AVBL
$$

NYZ001>004-010>016-019>021-085-041300-
WEST


CITY           SKY/WX    TMP DP  RH WIND       PRES   REMARKS
NIAGARA FALLS  MOSUNNY   48  41  76 S3        29.74R
BUFFALO        PTSUNNY   46  40  79 SE3       29.74R
DUNKIRK        CLOUDY    43  39  86 CALM      29.74R
JAMESTOWN      CLOUDY    43  39  87 S3        29.72S VSB 1/4
WELLSVILLE     FOG       44  43  96 CALM      29.73F VSB 3/4
ROCHESTER      PTSUNNY   49  44  83 CALM      29.75S
PENN YAN       PTSUNNY   50  45  83 SW3       29.75R
$$

             KEY
       WCI = WIND CHILL INDEX
       VSB = VISIBILITY
       HX  = HEAT INDEX
$$




USA.gov is the U.S. government's official web portal to all federal, state and local government web resources and services.